TimeEST,TemperatureF,Dew PointF,Humidity,Sea Level PressureIn,VisibilityMPH,Wind Direction,Wind SpeedMPH,Gust SpeedMPH,PrecipitationIn,Events,Conditions,WindDirDegrees,DateUTC
12:14 AM,53.6,51.8,94,29.55,5.0,South,9.2,-,N/A,,Mostly Cloudy,180,2012-12-18 05:14:00
12:52 AM,55.0,53.1,93,29.55,7.0,SW,5.8,-,N/A,,Overcast,230,2012-12-18 05:52:00
12:59 AM,55.4,53.6,94,29.55,8.0,SW,4.6,-,N/A,,Overcast,220,2012-12-18 05:59:00
1:52 AM,55.0,52.0,89,29.56,9.0,SSW,9.2,-,N/A,,Overcast,210,2012-12-18 06:52:00
2:52 AM,55.0,52.0,89,29.56,10.0,West,8.1,-,N/A,,Overcast,260,2012-12-18 07:52:00
3:17 AM,53.6,50.0,88,29.55,10.0,WSW,8.1,-,N/A,,Scattered Clouds,240,2012-12-18 08:17:00
3:52 AM,53.1,48.9,86,29.55,10.0,WSW,6.9,-,N/A,,Scattered Clouds,240,2012-12-18 08:52:00
4:52 AM,50.0,46.9,89,29.56,10.0,SSW,4.6,-,N/A,,Partly Cloudy,200,2012-12-18 09:52:00
5:20 AM,50.0,46.4,87,29.56,10.0,SSW,3.5,-,N/A,,Scattered Clouds,210,2012-12-18 10:20:00
5:52 AM,48.9,46.9,93,29.57,9.0,South,6.9,-,N/A,,Scattered Clouds,190,2012-12-18 10:52:00
6:52 AM,48.0,46.0,93,29.57,7.0,SSW,5.8,-,N/A,,Mostly Cloudy,210,2012-12-18 11:52:00
7:52 AM,50.0,48.0,93,29.60,8.0,Calm,Calm,-,N/A,,Mostly Cloudy,0,2012-12-18 12:52:00
8:52 AM,51.1,48.9,92,29.61,9.0,South,3.5,-,N/A,,Mostly Cloudy,190,2012-12-18 13:52:00
9:52 AM,55.9,48.9,77,29.61,10.0,West,3.5,-,N/A,,Scattered Clouds,270,2012-12-18 14:52:00
10:52 AM,59.0,46.0,62,29.62,10.0,West,9.2,-,N/A,,Scattered Clouds,260,2012-12-18 15:52:00
11:52 AM,61.0,41.0,48,29.60,10.0,West,16.1,21.9,N/A,,Scattered Clouds,270,2012-12-18 16:52:00
12:35 PM,59.0,39.2,48,29.59,10.0,West,10.4,27.6,0.00,Rain,Light Rain,270,2012-12-18 17:35:00
12:52 PM,60.1,37.9,44,29.59,10.0,WNW,11.5,27.6,0.00,,Mostly Cloudy,300,2012-12-18 17:52:00
1:52 PM,57.9,37.9,47,29.61,10.0,NW,18.4,31.1,0.00,,Mostly Cloudy,320,2012-12-18 18:52:00
2:52 PM,57.0,35.1,44,29.65,10.0,WNW,20.7,29.9,N/A,,Mostly Cloudy,300,2012-12-18 19:52:00
3:52 PM,55.0,32.0,42,29.68,10.0,WNW,19.6,25.3,N/A,,Scattered Clouds,290,2012-12-18 20:52:00
4:52 PM,52.0,32.0,47,29.71,10.0,NW,18.4,29.9,N/A,,Scattered Clouds,320,2012-12-18 21:52:00
5:52 PM,50.0,30.9,48,29.73,10.0,WNW,13.8,-,N/A,,Partly Cloudy,300,2012-12-18 22:52:00
6:52 PM,50.0,30.9,48,29.75,10.0,WNW,16.1,24.2,N/A,,Partly Cloudy,300,2012-12-18 23:52:00
7:52 PM,48.0,30.9,52,29.78,10.0,WNW,10.4,23.0,N/A,,Clear,300,2012-12-19 00:52:00
8:52 PM,48.0,30.0,50,29.81,10.0,WNW,9.2,20.7,N/A,,Clear,300,2012-12-19 01:52:00
9:52 PM,46.0,28.9,51,29.81,10.0,Variable,5.8,-,N/A,,Clear,0,2012-12-19 02:52:00
10:52 PM,46.0,28.9,51,29.83,10.0,West,3.5,-,N/A,,Clear,270,2012-12-19 03:52:00
11:52 PM,43.0,30.0,60,29.83,10.0,Variable,3.5,-,N/A,,Clear,0,2012-12-19 04:52:00